User: anonymous
Location: Montr�al
(45.5000°N, 73.5830°W)
Time: 09:26:29
(UTC-04:00)
Language:

Cosmos 2369 - Orbit

View from above orbital plane
View from above orbital plane
View from above satellite
View from above satellite

Ground track
Ground track

The orbit data is extracted from the following two-line orbital elements,

1 26069U 00006A   14258.72374745 -.00000176  00000-0 -68377-4 0  3397
2 26069 070.9938 305.2444 0013425 305.9606 188.7518 14.13235675754064
Epoch (UTC): 15 September 2014 17:22:11
Eccentricity: 0.0013425
inclination: 70.9938°
perigee height: 838 km
apogee height: 858 km
right ascension of ascending node: 305.2444°
argument of perigee: 305.9606°
revolutions per day: 14.13235675
mean anomaly at epoch: 188.7518°
orbit number at epoch: 75406

The dashed part of the orbit path shows where the satellite is in the earth's shadow,  

DLR